Regional Weather Roundup
Issued by NWS Sioux Falls, SD

Home | Current Version | Previous Version | Graphics & Text | Print | Product List | Glossary On
Versions: 1 2 3 4 5 6 7 8 9 10 11 12 13 14 15 16 17 18 19 20 21 22 23 24 25 26 27 28 29 30 31 32 33 34 35 36 37 38 39 40 41 42 43 44 45 46 47 48 49 50
000
ASUS43 KFSD 220510
RWRFSD

WEATHER ROUNDUP FOR SE SOUTH DAKOTA/SW MINNESOTA/NW IOWA
NATIONAL WEATHER SERVICE SIOUX FALLS SD
1100 PM CST TUE FEB 21 2017

NOTE: "FAIR" INDICATES FEW OR NO CLOUDS BELOW 12,000 FEET WITH NO
SIGNIFICANT WEATHER AND OR OBSTRUCTIONS TO VISIBILITY.


SDZ038>040-050-052>070-220600-
SOUTHEAST SOUTH DAKOTA

CITY           SKY/WX    TMP DP  RH WIND       PRES   REMARKS
BROOKINGS      LGT RAIN  47  40  76 E10       29.66S
CHAMBERLAIN    CLEAR     53  35  50 W10       29.66R
HURON          PTCLDY    50  40  68 SE12      29.59F
MADISON        MOCLDY    55  39  54 NE8G26    29.68R
MITCHELL       CLEAR     52  39  61 S9        29.62F
SIOUX FALLS    PTCLDY    42  37  82 CALM      29.65F
WINNER         FAIR      59  32  36 W15G25    29.68R
YANKTON        PTCLDY    54  36  50 SW9       29.65F
$$

MNZ071-072-080-081-089-090-097-098-220600-
SOUTHWEST MINNESOTA

CITY           SKY/WX    TMP DP  RH WIND       PRES   REMARKS
FAIRMONT       CLEAR     41  39  93 S9        29.71F
JACKSON        CLEAR     41  36  81 S10       29.70F
LUVERNE        PTCLDY    37  34  87 CALM      29.67F
MARSHALL       LGT RAIN  42  39  89 W10       29.71R
MONTEVIDEO     CLOUDY    43  43 100 S7        29.67F
PIPESTONE      PTCLDY   N/A N/A N/A S10       29.65F
REDWOOD FALLS  PTCLDY    44  39  82 CALM      29.67S
TRACY          PTCLDY    49  41  72 CALM      29.68R
WINDOM         CLEAR     37  37 100 CALM      29.68F
WORTHINGTON    CLEAR     48  37  65 S9        29.68F
$$

IAZ001>003-012>014-020>022-031-032-NEZ013-014-SDZ071-220600-
NORTHWEST IOWA

CITY           SKY/WX    TMP DP  RH WIND       PRES   REMARKS
CHEROKEE       PTCLDY    46  38  72 S6        29.71F
DENISON        CLEAR     50  37  62 SW9G16    29.73F
ESTHERVILLE    CLEAR     40  38  93 CALM      29.70F
LE MARS        CLEAR     46  36  66 CALM      29.70S
ORANGE CITY    CLEAR     48  37  66 S8        29.69F
SHELDON        CLEAR     50  39  66 S12       29.67F
SIOUX CITY     CLEAR     48  37  65 S7        29.71S
SPENCER        CLEAR     47  39  74 S9        29.70F
STORM LAKE     CLEAR     48  37  66 S12       29.72F
$$

ABBREVIATIONS USED IN REMARKS
   TC - TEMPERATURE IN CELSIUS
  WCI - WIND CHILL INDEX
   HX - HEAT INDEX
  VSB - VISIBILITY





USA.gov is the U.S. government's official web portal to all federal, state and local government web resources and services.